TimeCST,TemperatureF,Dew PointF,Humidity,Sea Level PressureIn,VisibilityMPH,Wind Direction,Wind SpeedMPH,Gust SpeedMPH,PrecipitationIn,Events,Conditions,WindDirDegrees,DateUTC
12:56 AM,43.0,33.1,68,30.27,10.0,North,6.9,-,N/A,,Partly Cloudy,360,2013-12-26 06:56:00
1:56 AM,43.0,33.1,68,30.27,10.0,North,6.9,-,N/A,,Clear,350,2013-12-26 07:56:00
2:56 AM,42.1,34.0,73,30.27,10.0,North,5.8,-,N/A,,Mostly Cloudy,350,2013-12-26 08:56:00
3:56 AM,41.0,34.0,76,30.26,10.0,North,4.6,-,N/A,,Clear,360,2013-12-26 09:56:00
4:56 AM,39.9,33.1,77,30.26,10.0,North,4.6,-,N/A,,Clear,350,2013-12-26 10:56:00
5:56 AM,37.9,32.0,79,30.28,10.0,North,5.8,-,N/A,,Partly Cloudy,350,2013-12-26 11:56:00
6:56 AM,37.9,32.0,79,30.28,10.0,North,4.6,-,N/A,,Mostly Cloudy,350,2013-12-26 12:56:00
7:56 AM,42.1,33.1,70,30.29,10.0,Variable,6.9,-,N/A,,Mostly Cloudy,0,2013-12-26 13:56:00
8:56 AM,46.0,35.1,66,30.30,10.0,North,9.2,-,N/A,,Mostly Cloudy,10,2013-12-26 14:56:00
9:56 AM,48.0,36.0,63,30.31,10.0,North,8.1,-,N/A,,Mostly Cloudy,360,2013-12-26 15:56:00
10:56 AM,50.0,37.0,61,30.29,10.0,North,10.4,-,N/A,,Mostly Cloudy,10,2013-12-26 16:56:00
11:56 AM,54.0,35.1,49,30.27,10.0,North,10.4,17.3,N/A,,Mostly Cloudy,10,2013-12-26 17:56:00
12:56 PM,55.9,35.1,45,30.23,10.0,North,8.1,-,N/A,,Mostly Cloudy,360,2013-12-26 18:56:00
1:56 PM,54.0,36.0,51,30.22,10.0,Variable,6.9,-,N/A,,Mostly Cloudy,0,2013-12-26 19:56:00
2:56 PM,54.0,36.0,51,30.23,10.0,North,9.2,-,N/A,,Mostly Cloudy,350,2013-12-26 20:56:00
3:56 PM,52.0,36.0,54,30.24,10.0,North,10.4,-,N/A,,Mostly Cloudy,360,2013-12-26 21:56:00
4:56 PM,48.9,37.0,64,30.24,10.0,North,5.8,-,N/A,,Mostly Cloudy,360,2013-12-26 22:56:00
5:56 PM,48.0,37.0,66,30.25,10.0,North,9.2,-,N/A,,Mostly Cloudy,360,2013-12-26 23:56:00
6:56 PM,46.9,37.0,68,30.26,10.0,North,8.1,-,N/A,,Mostly Cloudy,10,2013-12-27 00:56:00
7:56 PM,45.0,36.0,71,30.28,10.0,North,5.8,-,N/A,,Mostly Cloudy,360,2013-12-27 01:56:00
8:56 PM,44.1,36.0,73,30.28,10.0,North,5.8,-,N/A,,Overcast,360,2013-12-27 02:56:00
9:56 PM,45.0,35.1,68,30.28,10.0,North,6.9,-,N/A,,Overcast,10,2013-12-27 03:56:00
10:56 PM,44.1,35.1,71,30.28,10.0,North,8.1,-,N/A,,Overcast,360,2013-12-27 04:56:00
11:56 PM,43.0,35.1,74,30.26,10.0,North,4.6,-,N/A,,Clear,10,2013-12-27 05:56:00